EW2175 Weather Reports


time (UTC)temp
F
wind
direction
speed
knots
gust
knots
rain 1hr
in
rain 24hr
in
rain mn
in
humidity
%
barometer
mb
20260506184540 50 118 5.2 11.3 0.06 0.14 0.14 91 1008.6
20260506183037 51 184 1.7 10.4 0.05 0.13 0.13 91 1008.3
20260506181538 51 212 3.5 11.3 0.04 0.11 0.11 91 1008.1
20260506180040 51 200 3.5 9.6 0.03 0.09 0.09 91 1008.0
20260506174531 51 144 4.3 13.0 0.03 0.09 0.09 91 1007.8
20260506173028 51 206 5.2 11.3 0.03 0.08 0.08 91 1007.6
20260506171543 51 161 2.6 9.6 0.03 0.07 0.07 91 1007.4
20260506170024 51 191 3.5 8.7 0.03 0.06 0.06 90 1007.3
20260506164523 52 250 4.3 10.4 0.04 0.06 0.06 90 1007.3
20260506163025 52 203 2.6 14.8 0.04 0.05 0.05 89 1007.3
20260506161534 52 236 2.6 10.4 0.04 0.04 0.04 88 1007.3
20260506160018 52 171 2.6 11.3 0.03 0.03 0.03 87 1007.2
20260506154515 52 130 3.5 13.9 0.02 0.02 0.02 85 1007.2
20260506153013 53 150 0.9 10.4 0.01 0.01 0.01 82 1007.1
20260506151512 53 209 3.5 10.4 0.00 0.00 0.00 81 1007.0
20260506150011 54 242 4.3 10.4 0.00 0.00 0.00 81 1006.9
20260506144511 54 182 5.2 9.6 0.00 0.03 0.00 81 1006.8
20260506143009 54 161 4.3 8.7 0.00 0.03 0.00 83 1006.8
20260506141506 54 225 2.6 10.4 0.00 0.03 0.00 83 1006.8
20260506140005 54 207 5.2 12.2 0.00 0.03 0.00 83 1006.7
20260506134505 54 187 4.3 15.6 0.00 0.03 0.00 83 1006.6
20260506133002 54 114 7.8 16.5 0.00 0.03 0.00 82 1006.6
20260506131503 55 244 7.8 19.1 0.00 0.03 0.00 82 1006.5
20260506130059 56 174 4.3 17.4 0.00 0.03 0.00 81 1006.3
20260506124605 57 172 7.0 15.6 0.00 0.03 0.00 80 1006.1
20260506123057 57 121 7.0 15.6 0.00 0.03 0.00 81 1005.8
20260506121605 58 244 6.1 12.2 0.00 0.03 0.00 81 1005.7
20260506120055 58 198 5.2 13.0 0.00 0.03 0.00 79 1005.6
20260506114555 58 217 6.1 14.8 0.00 0.03 0.00 78 1005.5
20260506113053 59 197 6.1 13.0 0.00 0.03 0.00 77 1005.5
20260506111610 59 157 3.5 13.9 0.00 0.03 0.00 74 1005.4
20260506110054 59 185 5.2 9.6 0.00 0.03 0.00 72 1005.5
20260506104551 59 174 5.2 9.6 0.00 0.03 0.00 73 1005.3
20260506103051 59 207 4.3 8.7 0.00 0.03 0.00 73 1005.4
20260506101550 59 231 1.7 9.6 0.00 0.03 0.00 73 1005.2
20260506100049 59 199 4.3 9.6 0.00 0.03 0.00 71 1005.1
20260506094551 59 200 2.6 7.8 0.00 0.03 0.00 72 1005.1
20260506093053 60 226 4.3 10.4 0.00 0.03 0.00 71 1005.1
20260506091547 60 190 1.7 7.0 0.00 0.03 0.00 70 1005.0
20260506090046 60 204 1.7 8.7 0.00 0.03 0.00 70 1004.9
20260506084543 60 214 1.7 10.4 0.00 0.03 0.00 71 1004.9
20260506083051 59 216 1.7 8.7 0.00 0.03 0.00 72 1004.7
20260506081546 59 236 1.7 8.7 0.00 0.03 0.00 72 1004.7
20260506073034 58 192 5.2 9.6 0.00 0.03 0.00 75 1004.9
20260506071530 57 225 2.6 6.1 0.00 0.03 0.00 76 1004.8
20260506070127 57 209 2.6 9.6 0.00 0.03 0.00 76 1004.8
20260506061532 55 51 0.0 0.0 0.00 0.03 0.00 83 1004.9
20260506044507 54 195 0.9 4.3 0.00 0.03 0.00 82 1005.1
20260506043008 54 200 1.7 5.2 0.00 0.03 0.00 81 1005.2
20260506041505 54 217 1.7 4.3 0.00 0.03 0.00 80 1005.2
20260506040002 55 224 0.0 7.0 0.00 0.03 0.00 79 1005.3
20260506034604 55 191 3.5 9.6 0.00 0.03 0.00 79 1005.4
20260506033100 54 184 1.7 6.1 0.00 0.03 0.00 78 1005.4
20260506031601 55 199 0.0 1.7 0.00 0.03 0.00 77 1005.4
20260506030059 55 200 0.0 3.5 0.00 0.03 0.00 77 1005.6
20260506024601 55 186 1.7 4.3 0.00 0.03 0.00 77 1005.8
20260506023054 55 200 0.0 3.5 0.00 0.03 0.00 77 1005.8
20260506021552 55 196 0.9 3.5 0.00 0.03 0.00 79 1005.9
20260506020106 53 171 0.9 5.2 0.00 0.03 0.00 81 1006.1
20260506014607 53 80 0.0 1.7 0.00 0.03 0.00 84 1006.2
20260506013050 52 80 0.0 0.0 0.00 0.03 0.00 85 1006.5
20260506011611 53 80 0.0 2.6 0.00 0.03 0.00 85 1006.6
20260506010048 53 80 0.0 3.5 0.00 0.03 0.00 84 1006.4
20260506004559 53 79 0.0 0.9 0.00 0.03 0.00 84 1006.4
20260506003042 53 67 0.0 2.6 0.00 0.03 0.00 83 1006.5
20260506001544 54 72 0.0 0.0 0.00 0.03 0.00 82 1006.6
20260505234543 55 90 0.0 1.7 0.00 0.03 0.00 81 1006.8
20260505233033 55 61 0.0 2.6 0.00 0.03 0.00 79 1006.9
20260505231530 56 85 0.0 1.7 0.00 0.03 0.00 78 1007.1
20260505230049 56 85 0.9 2.6 0.00 0.03 0.00 76 1007.1
20260505224536 56 227 0.0 4.3 0.00 0.03 0.00 76 1007.2
20260505223026 56 179 0.0 4.3 0.00 0.03 0.00 77 1007.2
20260505221522 56 218 0.0 0.0 0.00 0.03 0.00 78 1007.3
20260505220019 57 218 0.0 2.6 0.00 0.03 0.00 77 1007.3
20260505214522 57 213 0.0 3.5 0.00 0.03 0.03 77 1007.2
20260505213019 57 204 0.9 6.1 0.00 0.03 0.03 77 1007.2
20260505211526 57 172 0.9 5.2 0.00 0.03 0.03 79 1007.2
20260505210017 57 143 1.7 7.0 0.00 0.03 0.03 80 1007.2
20260505204515 57 175 1.7 7.8 0.00 0.03 0.03 80 1007.3
20260505203015 58 172 1.7 6.1 0.00 0.03 0.03 80 1007.2
20260505201514 58 120 1.7 7.8 0.00 0.03 0.03 81 1007.1
20260505200014 58 220 0.9 5.2 0.00 0.03 0.03 81 1007.0
20260505194515 58 151 2.6 6.1 0.00 0.03 0.03 80 1006.9
20260505193015 58 182 3.5 8.7 0.00 0.03 0.03 79 1006.8
20260505191512 59 212 1.7 7.8 0.00 0.03 0.03 78 1006.7
20260505190014 59 146 1.7 7.0 0.00 0.03 0.03 79 1006.6